Regional Weather Roundup
Issued by NWS

Home | Current Version | Previous Version | Text Only | Print | Product List | Glossary Off
Versions: 1 2 3 4 5 6 7 8 9 10 11 12 13 14 15 16 17 18 19 20 21 22 23 24 25 26 27 28 29 30 31 32 33 34 35 36 37 38 39 40 41 42 43 44 45 46 47 48 49 50

000
ASUS45 KPSR 280810
RWRAZ

ARIZONA HOURLY REGIONAL WEATHER ROUNDUP
NATIONAL WEATHER SERVICE PHOENIX AZ
100 AM MST TUE JUL 28 2015

NOTE: FAIR INDICATES FEW OR NO CLOUDS BELOW 12,000 FEET WITH NO
SIGNIFICANT WEATHER AND/OR OBSTRUCTIONS TO VISIBILITY.

AZZ001>003-036-280900-
NORTHWEST ARIZONA

CITY           SKY/WX    TMP DP  RH WIND       PRES   REMARKS
KINGMAN        CLEAR     68  17  14 CALM      29.98S
$$

AZZ004>008-015-016-018-280900-
NORTH CENTRAL ARIZONA

CITY           SKY/WX    TMP DP  RH WIND       PRES   REMARKS
GRAND CANYON   CLEAR     43  21  41 E3        30.24S
WILLIAMS       CLEAR     54  34  47 S9        30.30S
PRESCOTT       CLEAR     67  44  43 S8        30.11S
FLAGSTAFF      CLEAR     53  41  63 CALM      30.25F
PAYSON         CLEAR     70  46  43 CALM      30.13S
PAGE           CLEAR     78  24  13 S6        30.00S
$$

AZZ009>014-017-280900-
NORTHEAST ARIZONA

CITY           SKY/WX    TMP DP  RH WIND       PRES   REMARKS
WINSLOW        CLEAR     71  48  43 SW9       30.08S
SAINT JOHNS    MOCLDY    72  43  35 SW8       30.14S
WINDOW ROCK    PTCLDY    69  39  33 VRB5      30.22R
SHOW LOW       MOCLDY    64  41  42 S7        30.22S
$$

AZZ023-280900-
GREATER PHOENIX AREA

CITY           SKY/WX    TMP DP  RH WIND       PRES   REMARKS
PHOENIX        PTCLDY    95  56  26 W13       29.78S
LUKE AFB       CLEAR     91  57  31 SW13      29.79R
DEER VALLEY    CLEAR     91  56  30 W9        29.82R
SCOTTSDALE     CLEAR     93  55  27 W8        29.83S
MESA-GATEWAY   PTCLDY    88  57  35 SW5       29.84R
$$

AZZ027-028-280900-
SOUTHWEST MARICOPA COUNTY AND PINAL COUNTY

CITY           SKY/WX    TMP DP  RH WIND       PRES   REMARKS
CASA GRANDE    PTCLDY    90  54  29 CALM      29.83R
GILA BEND      FAIR      87  56  34 NE7       29.80R
$$

AZZ503-504-507>509-280900-
SOUTHEAST ARIZONA

CITY           SKY/WX    TMP DP  RH WIND       PRES   REMARKS
TUCSON         PTCLDY    85  59  41 S6        29.96F
DAVIS-MONTHAN  PTCLDY    83  60  45 S6        29.95F
NOGALES        MOCLDY    71  61  70 SE5       30.06F
SIERRA VISTA   PTCLDY    71  58  62 SW3       30.11S
DOUGLAS          N/A    N/A N/A N/A MISG      30.05F
SAFFORD        PTCLDY    81  47  30 NW7       29.93R
$$

AZZ020-021-025-026-031-280900-
SOUTHWEST ARIZONA

CITY           SKY/WX    TMP DP  RH WIND       PRES   REMARKS
YUMA           CLEAR     86  70  58 S12       29.75S
$$

CAZ031-033-041-043-047-048-061-280900-
SOUTHERN CALIFORNIA

CITY           SKY/WX    TMP DP  RH WIND       PRES   REMARKS
DOWNTOWN L.A.  CLEAR     67  62  84 CALM      29.89F
L.A. AIRPORT   PTCLDY    67  63  87 W5        29.90S
SAN DIEGO      PTCLDY    68  60  75 N3        29.91F
BURBANK        CLEAR     69  61  75 E5        29.90S
ONTARIO        CLEAR     68  59  73 SW6       29.90F
RIVERSIDE      CLEAR     68  59  73 CALM      29.91F
PALM SPRINGS   CLEAR     86  52  30 W3        29.78S
EL CENTRO NAS  CLEAR     84  42  22 CALM      29.75R
IMPERIAL       CLEAR     83  44  25 S5        29.73R
BLYTHE         CLEAR     89  40  17 SW7       29.75S
NEEDLES        CLEAR     89  19   7 CALM      29.77S
$$

NVZ020-UTZ003-280900-
SOUTHERN NEVADA-UTAH

CITY           SKY/WX    TMP DP  RH WIND       PRES   REMARKS
LAS VEGAS      CLEAR     86  30  13 S3        29.81R
SALT LAKE CITY CLEAR     60  38  43 N6        30.16R
$$

NMZ009-TXZ055-280900-
NEW MEXICO-WEST TEXAS

CITY           SKY/WX    TMP DP  RH WIND       PRES   REMARKS
ALBUQUERQUE    MOCLDY    79  49  34 SE8       30.08F
EL PASO        MOCLDY    85  55  35 S13       30.01R
$$


........................KEY........................
SKY/WX - SKY CONDITION/WEATHER
TMP    - TEMPERATURE IN FAHRENHEIT
DP     - DEW POINT IN FAHRENHEIT
RH     - RELATIVE HUMIDITY IN PERCENT
WIND   - DIRECTION AND SPEED IN MILES PER HOUR (MPH)
VRB    - VARIABLE WIND DIRECTION
PRES   - MEAN SEA LEVEL PRESSURE IN INCHES OF MERCURY
         F - FALLING PRESSURE   R - RISING PRESSURE
         S - STEADY PRESSURE
VSB    - VISIBILITY IN MILES
HX     - HEAT INDEX IN FAHRENHEIT
WCI    - WIND CHILL INDEX IN FAHRENHEIT
TC     - TEMPERATURE IN CELSIUS WHICH IS ALSO KNOWN AS
         TEMPERATURE IN CENTIGRADE
AFB    - AIR FORCE BASE
         LUKE AFB IS LUKE AIR FORCE BASE
         DAVIS-MONTHAN IS DAVIS-MONTHAN AIR FORCE BASE
NAS    - NAVAL AIR STATION
         EL CENTRO NAS IS EL CENTRO NAVAL AIR STATION
N/A    - NOT AVAILABLE



USA.gov is the U.S. government's official web portal to all federal, state and local government web resources and services.